Year,Month,Day,Hour,Minute,Value (Times are PST for temperature in C)
2009,07,03,00,00,16.90
2009,07,03,00,01,16.90
2009,07,03,00,02,16.80
2009,07,03,00,03,16.80
2009,07,03,00,04,16.70
2009,07,03,00,05,16.70
2009,07,03,00,06,16.70
2009,07,03,00,07,16.70
2009,07,03,00,08,16.70
2009,07,03,00,09,16.70
2009,07,03,00,10,16.60
2009,07,03,00,11,16.60
2009,07,03,00,12,16.60
2009,07,03,00,13,16.60
2009,07,03,00,14,16.60
2009,07,03,00,15,16.50
2009,07,03,00,16,16.40
2009,07,03,00,17,16.40
2009,07,03,00,18,16.40
2009,07,03,00,19,16.40
2009,07,03,00,20,16.40
2009,07,03,00,21,16.40
2009,07,03,00,22,16.40
2009,07,03,00,23,16.30
2009,07,03,00,24,16.30
2009,07,03,00,25,16.30
2009,07,03,00,26,16.30
2009,07,03,00,27,16.30
2009,07,03,00,28,16.20
2009,07,03,00,29,16.20
2009,07,03,00,30,16.20
2009,07,03,00,31,16.20
2009,07,03,00,32,16.10
2009,07,03,00,33,16.10
2009,07,03,00,34,16.10
2009,07,03,00,35,16.00
2009,07,03,00,36,15.90
2009,07,03,00,37,15.90
2009,07,03,00,38,15.90
2009,07,03,00,39,15.80
2009,07,03,00,40,15.80
2009,07,03,00,41,15.80
2009,07,03,00,42,15.80
2009,07,03,00,43,15.80
2009,07,03,00,44,15.70
2009,07,03,00,45,15.70
2009,07,03,00,46,15.70
2009,07,03,00,47,15.60
2009,07,03,00,48,15.60
2009,07,03,00,49,15.60
2009,07,03,00,50,15.60
2009,07,03,00,51,15.50
2009,07,03,00,52,15.50
2009,07,03,00,53,15.50
2009,07,03,00,54,15.40
2009,07,03,00,55,15.40
2009,07,03,00,56,15.40
2009,07,03,00,57,15.30
2009,07,03,00,58,15.30
2009,07,03,00,59,15.30
2009,07,03,01,00,15.30
2009,07,03,01,01,15.30
2009,07,03,01,02,15.30
2009,07,03,01,03,15.30
2009,07,03,01,04,15.30
2009,07,03,01,05,15.20
2009,07,03,01,06,15.20
2009,07,03,01,07,15.20
2009,07,03,01,08,15.20
2009,07,03,01,09,15.20
2009,07,03,01,10,15.20
2009,07,03,01,11,15.20
2009,07,03,01,12,15.20
2009,07,03,01,13,15.20
2009,07,03,01,14,15.20
2009,07,03,01,15,15.10
2009,07,03,01,16,15.10
2009,07,03,01,17,15.10
2009,07,03,01,18,15.10
2009,07,03,01,19,15.10
2009,07,03,01,20,15.10
2009,07,03,01,21,15.10
2009,07,03,01,22,15.00
2009,07,03,01,23,15.00
2009,07,03,01,24,15.00
2009,07,03,01,25,15.00
2009,07,03,01,26,15.00
2009,07,03,01,27,14.90
2009,07,03,01,28,14.90
2009,07,03,01,29,14.90
2009,07,03,01,30,14.90
2009,07,03,01,31,14.90
2009,07,03,01,32,14.90
2009,07,03,01,33,14.90
2009,07,03,01,34,14.90
2009,07,03,01,35,14.90
2009,07,03,01,36,14.80
2009,07,03,01,37,14.80
2009,07,03,01,38,14.80
2009,07,03,01,39,14.80
2009,07,03,01,40,14.80
2009,07,03,01,41,14.80
2009,07,03,01,42,14.80
2009,07,03,01,43,14.80
2009,07,03,01,44,14.80
2009,07,03,01,45,14.80
2009,07,03,01,46,14.80
2009,07,03,01,47,14.70
2009,07,03,01,48,14.70
2009,07,03,01,49,14.70
2009,07,03,01,50,14.70
2009,07,03,01,51,14.70
2009,07,03,01,52,14.60
2009,07,03,01,53,14.60
2009,07,03,01,54,14.60
2009,07,03,01,55,14.60
2009,07,03,01,56,14.60
2009,07,03,01,57,14.60
2009,07,03,01,58,14.60
2009,07,03,01,59,14.60
2009,07,03,02,00,14.60
2009,07,03,02,01,14.60
2009,07,03,02,02,14.60
2009,07,03,02,03,14.60
2009,07,03,02,04,14.50
2009,07,03,02,05,14.50
2009,07,03,02,06,14.50
2009,07,03,02,07,14.50
2009,07,03,02,08,14.50
2009,07,03,02,09,14.50
2009,07,03,02,10,14.50
2009,07,03,02,11,14.50
2009,07,03,02,12,14.50
2009,07,03,02,13,14.40
2009,07,03,02,14,14.40
2009,07,03,02,15,14.40
2009,07,03,02,16,14.40
2009,07,03,02,17,14.50
2009,07,03,02,18,14.50
2009,07,03,02,19,14.50
2009,07,03,02,20,14.40
2009,07,03,02,21,14.40
2009,07,03,02,22,14.40
2009,07,03,02,23,14.40
2009,07,03,02,24,14.40
2009,07,03,02,25,14.50
2009,07,03,02,26,14.50
2009,07,03,02,27,14.50
2009,07,03,02,28,14.50
2009,07,03,02,29,14.50
2009,07,03,02,30,14.60
2009,07,03,02,31,14.60
2009,07,03,02,32,14.60
2009,07,03,02,33,14.60
2009,07,03,02,34,14.70
2009,07,03,02,35,14.80
2009,07,03,02,36,14.80
2009,07,03,02,37,14.90
2009,07,03,02,38,15.00
2009,07,03,02,39,15.10
2009,07,03,02,40,15.20
2009,07,03,02,41,15.20
2009,07,03,02,42,15.30
2009,07,03,02,43,15.30
2009,07,03,02,44,15.30
2009,07,03,02,45,15.30
2009,07,03,02,46,15.30
2009,07,03,02,47,15.30
2009,07,03,02,48,15.30
2009,07,03,02,49,15.30
2009,07,03,02,50,15.30
2009,07,03,02,51,15.30
2009,07,03,02,52,15.30
2009,07,03,02,53,15.30
2009,07,03,02,54,15.30
2009,07,03,02,55,15.30
2009,07,03,02,56,15.30
2009,07,03,02,57,15.30
2009,07,03,02,58,15.30
2009,07,03,02,59,15.40
2009,07,03,03,00,15.40
2009,07,03,03,01,15.40
2009,07,03,03,02,15.50
2009,07,03,03,03,15.50
2009,07,03,03,04,15.50
2009,07,03,03,05,15.60
2009,07,03,03,06,15.60
2009,07,03,03,07,15.60
2009,07,03,03,08,15.60
2009,07,03,03,09,15.60
2009,07,03,03,10,15.60
2009,07,03,03,11,15.60
2009,07,03,03,12,15.60
2009,07,03,03,13,15.60
2009,07,03,03,14,15.50
2009,07,03,03,15,15.50
2009,07,03,03,16,15.50
2009,07,03,03,17,15.50
2009,07,03,03,18,15.50
2009,07,03,03,19,15.60
2009,07,03,03,20,15.60
2009,07,03,03,21,15.60
2009,07,03,03,22,15.70
2009,07,03,03,23,15.70
2009,07,03,03,24,15.80
2009,07,03,03,25,15.80
2009,07,03,03,26,15.80
2009,07,03,03,27,15.80
2009,07,03,03,28,15.80
2009,07,03,03,29,15.80
2009,07,03,03,30,15.80
2009,07,03,03,31,15.80
2009,07,03,03,32,15.80
2009,07,03,03,33,15.80
2009,07,03,03,34,15.70
2009,07,03,03,35,15.70
2009,07,03,03,36,15.70
2009,07,03,03,37,15.70
2009,07,03,03,38,15.70
2009,07,03,03,39,15.60
2009,07,03,03,40,15.60
2009,07,03,03,41,15.60
2009,07,03,03,42,15.60
2009,07,03,03,43,15.50
2009,07,03,03,44,15.50
2009,07,03,03,45,15.50
2009,07,03,03,46,15.50
2009,07,03,03,47,15.40
2009,07,03,03,48,15.40
2009,07,03,03,49,15.30
2009,07,03,03,50,15.30
2009,07,03,03,51,15.30
2009,07,03,03,52,15.30
2009,07,03,03,53,15.30
2009,07,03,03,54,15.30
2009,07,03,03,55,15.20
2009,07,03,03,56,15.20
2009,07,03,03,57,15.20
2009,07,03,03,58,15.10
2009,07,03,03,59,15.10
2009,07,03,04,00,15.10
2009,07,03,04,01,15.00
2009,07,03,04,02,15.00
2009,07,03,04,03,14.90
2009,07,03,04,04,14.90
2009,07,03,04,05,14.90
2009,07,03,04,06,14.90
2009,07,03,04,07,14.80
2009,07,03,04,08,14.80
2009,07,03,04,09,14.80
2009,07,03,04,10,14.80
2009,07,03,04,11,14.70
2009,07,03,04,12,14.70
2009,07,03,04,13,14.60
2009,07,03,04,14,14.60
2009,07,03,04,15,14.60
2009,07,03,04,16,14.50
2009,07,03,04,17,14.50
2009,07,03,04,18,14.50
2009,07,03,04,19,14.40
2009,07,03,04,20,14.40
2009,07,03,04,21,14.40
2009,07,03,04,22,14.40
2009,07,03,04,23,14.40
2009,07,03,04,24,14.40
2009,07,03,04,25,14.40
2009,07,03,04,26,14.30
2009,07,03,04,27,14.30
2009,07,03,04,28,14.30
2009,07,03,04,29,14.30
2009,07,03,04,30,14.30
2009,07,03,04,31,14.20
2009,07,03,04,32,14.20
2009,07,03,04,33,14.20
2009,07,03,04,34,14.20
2009,07,03,04,35,14.20
2009,07,03,04,36,14.20
2009,07,03,04,37,14.20
2009,07,03,04,38,14.20
2009,07,03,04,39,14.20
2009,07,03,04,40,14.20
2009,07,03,04,41,14.20
2009,07,03,04,42,14.30
2009,07,03,04,43,14.30
2009,07,03,04,44,14.30
2009,07,03,04,45,14.30
2009,07,03,04,46,14.20
2009,07,03,04,47,14.20
2009,07,03,04,48,14.20
2009,07,03,04,49,14.20
2009,07,03,04,50,14.20
2009,07,03,04,51,14.20
2009,07,03,04,52,14.20
2009,07,03,04,53,14.20
2009,07,03,04,54,14.20
2009,07,03,04,55,14.20
2009,07,03,04,56,14.20
2009,07,03,04,57,14.20
2009,07,03,04,58,14.20
2009,07,03,04,59,14.20
2009,07,03,05,00,14.10
2009,07,03,05,01,14.10
2009,07,03,05,02,14.10
2009,07,03,05,03,14.00
2009,07,03,05,04,14.00
2009,07,03,05,05,14.00
2009,07,03,05,06,13.90
2009,07,03,05,07,13.90
2009,07,03,05,08,13.90
2009,07,03,05,09,13.80
2009,07,03,05,10,13.80
2009,07,03,05,11,13.70
2009,07,03,05,12,13.70
2009,07,03,05,13,13.60
2009,07,03,05,14,13.60
2009,07,03,05,15,13.50
2009,07,03,05,16,13.50
2009,07,03,05,17,13.40
2009,07,03,05,18,13.30
2009,07,03,05,19,13.30
2009,07,03,05,20,13.20
2009,07,03,05,21,13.20
2009,07,03,05,22,13.20
2009,07,03,05,23,13.10
2009,07,03,05,24,13.10
2009,07,03,05,25,13.00
2009,07,03,05,26,13.00
2009,07,03,05,27,13.00
2009,07,03,05,28,12.90
2009,07,03,05,29,12.90
2009,07,03,05,30,12.90
2009,07,03,05,31,12.80
2009,07,03,05,32,12.80
2009,07,03,05,33,12.80
2009,07,03,05,34,12.80
2009,07,03,05,35,12.70
2009,07,03,05,36,12.70
2009,07,03,05,37,12.60
2009,07,03,05,38,12.60
2009,07,03,05,39,12.60
2009,07,03,05,40,12.50
2009,07,03,05,41,12.50
2009,07,03,05,42,12.50
2009,07,03,05,43,12.50
2009,07,03,05,44,12.50
2009,07,03,05,45,12.50
2009,07,03,05,46,12.50
2009,07,03,05,47,12.50
2009,07,03,05,48,12.50
2009,07,03,05,49,12.50
2009,07,03,05,50,12.50
2009,07,03,05,51,12.50
2009,07,03,05,52,12.50
2009,07,03,05,53,12.60
2009,07,03,05,54,12.60
2009,07,03,05,55,12.60
2009,07,03,05,56,12.70
2009,07,03,05,57,12.70
2009,07,03,05,58,12.70
2009,07,03,05,59,12.80
2009,07,03,06,00,12.80
2009,07,03,06,01,12.80
2009,07,03,06,02,12.80
2009,07,03,06,03,12.80
2009,07,03,06,04,12.80
2009,07,03,06,05,12.80
2009,07,03,06,06,12.90
2009,07,03,06,07,13.00
2009,07,03,06,08,13.00
2009,07,03,06,09,13.10
2009,07,03,06,10,13.20
2009,07,03,06,11,13.30
2009,07,03,06,12,13.30
2009,07,03,06,13,13.30
2009,07,03,06,14,13.30
2009,07,03,06,15,13.30
2009,07,03,06,16,13.30
2009,07,03,06,17,13.30
2009,07,03,06,18,13.40
2009,07,03,06,19,13.40
2009,07,03,06,20,13.40
2009,07,03,06,21,13.50
2009,07,03,06,22,13.60
2009,07,03,06,23,13.60
2009,07,03,06,24,13.70
2009,07,03,06,25,13.70
2009,07,03,06,26,13.70
2009,07,03,06,27,13.70
2009,07,03,06,28,13.70
2009,07,03,06,29,13.70
2009,07,03,06,30,13.70
2009,07,03,06,31,13.70
2009,07,03,06,32,13.70
2009,07,03,06,33,13.70
2009,07,03,06,34,13.70
2009,07,03,06,35,13.70
2009,07,03,06,36,13.70
2009,07,03,06,37,13.80
2009,07,03,06,38,13.80
2009,07,03,06,39,13.80
2009,07,03,06,40,13.80
2009,07,03,06,41,13.90
2009,07,03,06,42,13.90
2009,07,03,06,43,13.90
2009,07,03,06,44,13.90
2009,07,03,06,45,14.00
2009,07,03,06,46,14.00
2009,07,03,06,47,14.10
2009,07,03,06,48,14.10
2009,07,03,06,49,14.20
2009,07,03,06,50,14.30
2009,07,03,06,51,14.50
2009,07,03,06,52,14.50
2009,07,03,06,53,14.60
2009,07,03,06,54,14.60
2009,07,03,06,55,14.70
2009,07,03,06,56,14.70
2009,07,03,06,57,14.80
2009,07,03,06,58,14.80
2009,07,03,06,59,14.90
2009,07,03,07,00,14.90
2009,07,03,07,01,15.00
2009,07,03,07,02,15.00
2009,07,03,07,03,15.10
2009,07,03,07,04,15.10
2009,07,03,07,05,15.10
2009,07,03,07,06,15.10
2009,07,03,07,07,15.20
2009,07,03,07,08,15.20
2009,07,03,07,09,15.30
2009,07,03,07,10,15.30
2009,07,03,07,11,15.40
2009,07,03,07,12,15.50
2009,07,03,07,13,15.60
2009,07,03,07,14,15.70
2009,07,03,07,15,15.80
2009,07,03,07,16,15.80
2009,07,03,07,17,15.90
2009,07,03,07,18,15.90
2009,07,03,07,19,15.90
2009,07,03,07,20,15.90
2009,07,03,07,21,16.00
2009,07,03,07,22,16.10
2009,07,03,07,23,16.10
2009,07,03,07,24,16.20
2009,07,03,07,25,16.20
2009,07,03,07,26,16.30
2009,07,03,07,27,16.30
2009,07,03,07,28,16.40
2009,07,03,07,29,16.40
2009,07,03,07,30,16.40
2009,07,03,07,31,16.50
2009,07,03,07,32,16.60
2009,07,03,07,33,16.60
2009,07,03,07,34,16.70
2009,07,03,07,35,16.70
2009,07,03,07,36,16.70
2009,07,03,07,37,16.70
2009,07,03,07,38,16.80
2009,07,03,07,39,16.90
2009,07,03,07,40,17.00
2009,07,03,07,41,17.00
2009,07,03,07,42,17.10
2009,07,03,07,43,17.20
2009,07,03,07,44,17.30
2009,07,03,07,45,17.30
2009,07,03,07,46,17.40
2009,07,03,07,47,17.50
2009,07,03,07,48,17.50
2009,07,03,07,49,17.60
2009,07,03,07,50,17.70
2009,07,03,07,51,17.80
2009,07,03,07,52,17.90
2009,07,03,07,53,18.00
2009,07,03,07,54,18.10
2009,07,03,07,55,18.20
2009,07,03,07,56,18.30
2009,07,03,07,57,18.30
2009,07,03,07,58,18.40
2009,07,03,07,59,18.50
2009,07,03,08,00,18.50
2009,07,03,08,01,18.60
2009,07,03,08,02,18.70
2009,07,03,08,03,18.80
2009,07,03,08,04,18.90
2009,07,03,08,05,19.00
2009,07,03,08,06,19.10
2009,07,03,08,07,19.10
2009,07,03,08,08,19.20
2009,07,03,08,09,19.30
2009,07,03,08,10,19.30
2009,07,03,08,11,19.40
2009,07,03,08,12,19.50
2009,07,03,08,13,19.50
2009,07,03,08,14,19.60
2009,07,03,08,15,19.60
2009,07,03,08,16,19.60
2009,07,03,08,17,19.60
2009,07,03,08,18,19.70
2009,07,03,08,19,19.70
2009,07,03,08,20,19.60
2009,07,03,08,21,19.60
2009,07,03,08,22,19.60
2009,07,03,08,23,19.60
2009,07,03,08,24,19.70
2009,07,03,08,25,19.70
2009,07,03,08,26,19.80
2009,07,03,08,27,19.80
2009,07,03,08,28,19.90
2009,07,03,08,29,19.90
2009,07,03,08,30,19.90
2009,07,03,08,31,19.90
2009,07,03,08,32,19.90
2009,07,03,08,33,19.90
2009,07,03,08,34,19.90
2009,07,03,08,35,19.90
2009,07,03,08,36,19.80
2009,07,03,08,37,19.80
2009,07,03,08,38,19.80
2009,07,03,08,39,19.70
2009,07,03,08,40,19.70
2009,07,03,08,41,19.70
2009,07,03,08,42,19.70
2009,07,03,08,43,19.70
2009,07,03,08,44,19.70
2009,07,03,08,45,19.70
2009,07,03,08,46,19.80
2009,07,03,08,47,19.80
2009,07,03,08,48,19.80
2009,07,03,08,49,19.90
2009,07,03,08,50,19.90
2009,07,03,08,51,20.00
2009,07,03,08,52,20.10
2009,07,03,08,53,20.20
2009,07,03,08,54,20.20
2009,07,03,08,55,20.20
2009,07,03,08,56,20.20
2009,07,03,08,57,20.20
2009,07,03,08,58,20.20
2009,07,03,08,59,20.20
2009,07,03,09,00,20.30
2009,07,03,09,01,20.30
2009,07,03,09,02,20.40
2009,07,03,09,03,20.50
2009,07,03,09,04,20.50
2009,07,03,09,05,20.50
2009,07,03,09,06,20.50
2009,07,03,09,07,20.50
2009,07,03,09,08,20.50
2009,07,03,09,09,20.50
2009,07,03,09,10,20.60
2009,07,03,09,11,20.70
2009,07,03,09,12,20.70
2009,07,03,09,13,20.70
2009,07,03,09,14,20.80
2009,07,03,09,15,20.90
2009,07,03,09,16,20.90
2009,07,03,09,17,21.00
2009,07,03,09,18,20.90
2009,07,03,09,19,20.90
2009,07,03,09,20,20.90
2009,07,03,09,21,20.90
2009,07,03,09,22,20.90
2009,07,03,09,23,20.90
2009,07,03,09,24,20.90
2009,07,03,09,25,20.80
2009,07,03,09,26,20.80
2009,07,03,09,27,20.90
2009,07,03,09,28,20.90
2009,07,03,09,29,21.00
2009,07,03,09,30,21.00
2009,07,03,09,31,20.90
2009,07,03,09,32,20.90
2009,07,03,09,33,20.90
2009,07,03,09,34,20.80
2009,07,03,09,35,20.70
2009,07,03,09,36,20.70
2009,07,03,09,37,20.70
2009,07,03,09,38,20.80
2009,07,03,09,39,20.80
2009,07,03,09,40,20.80
2009,07,03,09,41,20.80
2009,07,03,09,42,20.90
2009,07,03,09,43,21.00
2009,07,03,09,44,21.00
2009,07,03,09,45,21.10
2009,07,03,09,46,21.10
2009,07,03,09,47,21.10
2009,07,03,09,48,21.20
2009,07,03,09,49,21.30
2009,07,03,09,50,21.30
2009,07,03,09,51,21.30
2009,07,03,09,52,21.30
2009,07,03,09,53,21.30
2009,07,03,09,54,21.30
2009,07,03,09,55,21.30
2009,07,03,09,56,21.30
2009,07,03,09,57,21.30
2009,07,03,09,58,21.40
2009,07,03,09,59,21.40
2009,07,03,10,00,21.50
2009,07,03,10,01,21.60
2009,07,03,10,02,21.60
2009,07,03,10,03,21.60
2009,07,03,10,04,21.60
2009,07,03,10,05,21.60
2009,07,03,10,06,21.60
2009,07,03,10,07,21.70
2009,07,03,10,08,21.80
2009,07,03,10,09,21.80
2009,07,03,10,10,21.70
2009,07,03,10,11,21.70
2009,07,03,10,12,21.70
2009,07,03,10,13,21.70
2009,07,03,10,14,21.70
2009,07,03,10,15,21.60
2009,07,03,10,16,21.40
2009,07,03,10,17,21.30
2009,07,03,10,18,21.40
2009,07,03,10,19,21.40
2009,07,03,10,20,21.40
2009,07,03,10,21,21.30
2009,07,03,10,22,21.20
2009,07,03,10,23,21.10
2009,07,03,10,24,21.10
2009,07,03,10,25,21.10
2009,07,03,10,26,21.10
2009,07,03,10,27,21.10
2009,07,03,10,28,21.20
2009,07,03,10,29,21.30
2009,07,03,10,30,21.30
2009,07,03,10,31,21.40
2009,07,03,10,32,21.40
2009,07,03,10,33,21.30
2009,07,03,10,34,21.30
2009,07,03,10,35,21.30
2009,07,03,10,36,21.30
2009,07,03,10,37,21.40
2009,07,03,10,38,21.60
2009,07,03,10,39,21.60
2009,07,03,10,40,21.70
2009,07,03,10,41,21.70
2009,07,03,10,42,21.70
2009,07,03,10,43,21.70
2009,07,03,10,44,21.70
2009,07,03,10,45,21.80
2009,07,03,10,46,21.70
2009,07,03,10,47,21.70
2009,07,03,10,48,21.50
2009,07,03,10,49,21.30
2009,07,03,10,50,21.30
2009,07,03,10,51,21.30
2009,07,03,10,52,21.30
2009,07,03,10,53,21.20
2009,07,03,10,54,21.20
2009,07,03,10,55,21.30
2009,07,03,10,56,21.30
2009,07,03,10,57,21.30
2009,07,03,10,58,21.30
2009,07,03,10,59,21.30
2009,07,03,11,00,21.30
2009,07,03,11,01,21.20
2009,07,03,11,02,21.00
2009,07,03,11,03,21.00
2009,07,03,11,04,20.90
2009,07,03,11,05,20.80
2009,07,03,11,06,20.70
2009,07,03,11,07,20.60
2009,07,03,11,08,20.60
2009,07,03,11,09,20.60
2009,07,03,11,10,20.60
2009,07,03,11,11,20.60
2009,07,03,11,12,20.60
2009,07,03,11,13,20.60
2009,07,03,11,14,20.70
2009,07,03,11,15,20.70
2009,07,03,11,16,20.70
2009,07,03,11,17,20.80
2009,07,03,11,18,20.90
2009,07,03,11,19,21.10
2009,07,03,11,20,21.20
2009,07,03,11,21,21.20
2009,07,03,11,22,21.10
2009,07,03,11,23,21.00
2009,07,03,11,24,21.00
2009,07,03,11,25,21.10
2009,07,03,11,26,21.30
2009,07,03,11,27,21.40
2009,07,03,11,28,21.50
2009,07,03,11,29,21.60
2009,07,03,11,30,21.60
2009,07,03,11,31,21.70
2009,07,03,11,32,21.80
2009,07,03,11,33,21.90
2009,07,03,11,34,22.00
2009,07,03,11,35,22.10
2009,07,03,11,36,22.20
2009,07,03,11,37,22.30
2009,07,03,11,38,22.50
2009,07,03,11,39,22.70
2009,07,03,11,40,22.80
2009,07,03,11,41,22.90
2009,07,03,11,42,23.00
2009,07,03,11,43,22.90
2009,07,03,11,44,22.90
2009,07,03,11,45,22.90
2009,07,03,11,46,23.10
2009,07,03,11,47,23.20
2009,07,03,11,48,23.30
2009,07,03,11,49,23.30
2009,07,03,11,50,23.30
2009,07,03,11,51,23.30
2009,07,03,11,52,23.30
2009,07,03,11,53,23.40
2009,07,03,11,54,23.40
2009,07,03,11,55,23.40
2009,07,03,11,56,23.50
2009,07,03,11,57,23.60
2009,07,03,11,58,23.70
2009,07,03,11,59,23.90
2009,07,03,12,00,24.00
2009,07,03,12,01,24.10
2009,07,03,12,02,24.10
2009,07,03,12,03,24.10
2009,07,03,12,04,24.10
2009,07,03,12,05,24.10
2009,07,03,12,06,24.10
2009,07,03,12,07,24.30
2009,07,03,12,08,24.30
2009,07,03,12,09,24.30
2009,07,03,12,10,24.30
2009,07,03,12,11,24.30
2009,07,03,12,12,24.30
2009,07,03,12,13,24.30
2009,07,03,12,14,24.30
2009,07,03,12,15,24.30
2009,07,03,12,16,24.40
2009,07,03,12,17,24.40
2009,07,03,12,18,24.50
2009,07,03,12,19,24.50
2009,07,03,12,20,24.60
2009,07,03,12,21,24.60
2009,07,03,12,22,24.60
2009,07,03,12,23,24.50
2009,07,03,12,24,24.50
2009,07,03,12,25,24.50
2009,07,03,12,26,24.50
2009,07,03,12,27,24.50
2009,07,03,12,28,24.60
2009,07,03,12,29,24.70
2009,07,03,12,30,24.70
2009,07,03,12,31,24.70
2009,07,03,12,32,24.70
2009,07,03,12,33,24.80
2009,07,03,12,34,24.80
2009,07,03,12,35,24.90
2009,07,03,12,36,24.90
2009,07,03,12,37,24.90
2009,07,03,12,38,24.90
2009,07,03,12,39,24.90
2009,07,03,12,40,24.80
2009,07,03,12,41,24.80
2009,07,03,12,42,24.70
2009,07,03,12,43,24.30
2009,07,03,12,44,23.90
2009,07,03,12,45,23.60
2009,07,03,12,46,23.30
2009,07,03,12,47,23.10
2009,07,03,12,48,22.90
2009,07,03,12,49,23.00
2009,07,03,12,50,22.90
2009,07,03,12,51,23.00
2009,07,03,12,52,23.10
2009,07,03,12,53,23.10
2009,07,03,12,54,23.10
2009,07,03,12,55,23.10
2009,07,03,12,56,23.10
2009,07,03,12,57,23.00
2009,07,03,12,58,23.00
2009,07,03,12,59,23.10
2009,07,03,13,00,23.30
2009,07,03,13,01,23.30
2009,07,03,13,02,23.50
2009,07,03,13,03,23.60
2009,07,03,13,04,23.50
2009,07,03,13,05,23.60
2009,07,03,13,06,23.60
2009,07,03,13,07,23.60
2009,07,03,13,08,23.60
2009,07,03,13,09,23.70
2009,07,03,13,10,23.70
2009,07,03,13,11,23.80
2009,07,03,13,12,23.80
2009,07,03,13,13,23.80
2009,07,03,13,14,23.80
2009,07,03,13,15,23.90
2009,07,03,13,16,24.10
2009,07,03,13,17,24.30
2009,07,03,13,18,24.30
2009,07,03,13,19,24.30
2009,07,03,13,20,24.30
2009,07,03,13,21,24.20
2009,07,03,13,22,24.10
2009,07,03,13,23,24.00
2009,07,03,13,24,23.90
2009,07,03,13,25,23.90
2009,07,03,13,26,23.90
2009,07,03,13,27,24.00
2009,07,03,13,28,24.10
2009,07,03,13,29,24.10
2009,07,03,13,30,24.10
2009,07,03,13,31,23.90
2009,07,03,13,32,23.80
2009,07,03,13,33,23.70
2009,07,03,13,34,23.70
2009,07,03,13,35,23.70
2009,07,03,13,36,23.70
2009,07,03,13,37,23.70
2009,07,03,13,38,23.80
2009,07,03,13,39,23.90
2009,07,03,13,40,24.10
2009,07,03,13,41,24.10
2009,07,03,13,42,24.10
2009,07,03,13,43,24.00
2009,07,03,13,44,23.90
2009,07,03,13,45,23.80
2009,07,03,13,46,23.80
2009,07,03,13,47,23.70
2009,07,03,13,48,23.70
2009,07,03,13,49,23.80
2009,07,03,13,50,23.90
2009,07,03,13,51,23.90
2009,07,03,13,52,23.90
2009,07,03,13,53,23.90
2009,07,03,13,54,24.10
2009,07,03,13,55,24.10
2009,07,03,13,56,24.20
2009,07,03,13,57,24.40
2009,07,03,13,58,24.40
2009,07,03,13,59,24.40
2009,07,03,14,00,24.20
2009,07,03,14,01,24.30
2009,07,03,14,02,24.30
2009,07,03,14,03,24.30
2009,07,03,14,04,24.40
2009,07,03,14,05,24.50
2009,07,03,14,06,24.60
2009,07,03,14,07,24.60
2009,07,03,14,08,24.60
2009,07,03,14,09,24.70
2009,07,03,14,10,24.80
2009,07,03,14,11,24.80
2009,07,03,14,12,24.80
2009,07,03,14,13,24.80
2009,07,03,14,14,24.80
2009,07,03,14,15,24.80
2009,07,03,14,16,24.80
2009,07,03,14,17,24.80
2009,07,03,14,18,24.80
2009,07,03,14,19,24.80
2009,07,03,14,20,24.80
2009,07,03,14,21,24.70
2009,07,03,14,22,24.80
2009,07,03,14,23,24.80
2009,07,03,14,24,24.90
2009,07,03,14,25,24.90
2009,07,03,14,26,25.00
2009,07,03,14,27,25.10
2009,07,03,14,28,25.10
2009,07,03,14,29,25.00
2009,07,03,14,30,25.10
2009,07,03,14,31,25.20
2009,07,03,14,32,25.40
2009,07,03,14,33,25.40
2009,07,03,14,34,25.30
2009,07,03,14,35,25.30
2009,07,03,14,36,25.30
2009,07,03,14,37,25.20
2009,07,03,14,38,25.00
2009,07,03,14,39,24.90
2009,07,03,14,40,24.80
2009,07,03,14,41,24.80
2009,07,03,14,42,24.80
2009,07,03,14,43,24.80
2009,07,03,14,44,24.90
2009,07,03,14,45,24.90
2009,07,03,14,46,25.10
2009,07,03,14,47,25.10
2009,07,03,14,48,25.10
2009,07,03,14,49,25.10
2009,07,03,14,50,25.00
2009,07,03,14,51,25.00
2009,07,03,14,52,25.00
2009,07,03,14,53,24.90
2009,07,03,14,54,25.00
2009,07,03,14,55,25.00
2009,07,03,14,56,25.00
2009,07,03,14,57,25.10
2009,07,03,14,58,25.10
2009,07,03,14,59,25.20
2009,07,03,15,00,25.20
2009,07,03,15,01,25.30
2009,07,03,15,02,25.40
2009,07,03,15,03,25.50
2009,07,03,15,04,25.50
2009,07,03,15,05,25.60
2009,07,03,15,06,25.60
2009,07,03,15,07,25.60
2009,07,03,15,08,25.60
2009,07,03,15,09,25.60
2009,07,03,15,10,25.60
2009,07,03,15,11,25.60
2009,07,03,15,12,25.50
2009,07,03,15,13,25.40
2009,07,03,15,14,25.30
2009,07,03,15,15,25.30
2009,07,03,15,16,25.20
2009,07,03,15,17,25.20
2009,07,03,15,18,25.30
2009,07,03,15,19,25.40
2009,07,03,15,20,25.30
2009,07,03,15,21,25.10
2009,07,03,15,22,25.10
2009,07,03,15,23,25.20
2009,07,03,15,24,25.30
2009,07,03,15,25,25.50
2009,07,03,15,26,25.50
2009,07,03,15,27,25.50
2009,07,03,15,28,25.60
2009,07,03,15,29,25.80
2009,07,03,15,30,26.00
2009,07,03,15,31,26.10
2009,07,03,15,32,26.30
2009,07,03,15,33,26.40
2009,07,03,15,34,26.60
2009,07,03,15,35,26.60
2009,07,03,15,36,26.70
2009,07,03,15,37,26.90
2009,07,03,15,38,27.20
2009,07,03,15,39,27.30
2009,07,03,15,40,27.50
2009,07,03,15,41,27.60
2009,07,03,15,42,27.70
2009,07,03,15,43,27.70
2009,07,03,15,44,27.80
2009,07,03,15,45,27.70
2009,07,03,15,46,27.70
2009,07,03,15,47,27.60
2009,07,03,15,48,27.60
2009,07,03,15,49,27.70
2009,07,03,15,50,27.90
2009,07,03,15,51,27.90
2009,07,03,15,52,28.00
2009,07,03,15,53,27.90
2009,07,03,15,54,27.80
2009,07,03,15,55,27.80
2009,07,03,15,56,27.90
2009,07,03,15,57,28.00
2009,07,03,15,58,28.10
2009,07,03,15,59,28.20
2009,07,03,16,00,28.20
2009,07,03,16,01,28.10
2009,07,03,16,02,28.10
2009,07,03,16,03,28.20
2009,07,03,16,04,28.10
2009,07,03,16,05,28.20
2009,07,03,16,06,28.20
2009,07,03,16,07,28.30
2009,07,03,16,08,28.30
2009,07,03,16,09,28.20
2009,07,03,16,10,28.20
2009,07,03,16,11,28.30
2009,07,03,16,12,28.40
2009,07,03,16,13,28.60
2009,07,03,16,14,28.60
2009,07,03,16,15,28.70
2009,07,03,16,16,28.70
2009,07,03,16,17,28.80
2009,07,03,16,18,28.90
2009,07,03,16,19,28.90
2009,07,03,16,20,29.10
2009,07,03,16,21,29.10
2009,07,03,16,22,29.20
2009,07,03,16,23,29.30
2009,07,03,16,24,29.30
2009,07,03,16,25,29.30
2009,07,03,16,26,29.30
2009,07,03,16,27,29.10
2009,07,03,16,28,29.00
2009,07,03,16,29,28.90
2009,07,03,16,30,28.90
2009,07,03,16,31,28.90
2009,07,03,16,32,28.90
2009,07,03,16,33,28.90
2009,07,03,16,34,29.00
2009,07,03,16,35,29.10
2009,07,03,16,36,29.10
2009,07,03,16,37,29.10
2009,07,03,16,38,29.10
2009,07,03,16,39,29.10
2009,07,03,16,40,29.10
2009,07,03,16,41,28.90
2009,07,03,16,42,28.90
2009,07,03,16,43,28.90
2009,07,03,16,44,28.70
2009,07,03,16,45,28.60
2009,07,03,16,46,28.40
2009,07,03,16,47,28.40
2009,07,03,16,48,28.40
2009,07,03,16,49,28.50
2009,07,03,16,50,28.40
2009,07,03,16,51,28.30
2009,07,03,16,52,28.20
2009,07,03,16,53,28.20
2009,07,03,16,54,28.00
2009,07,03,16,55,28.00
2009,07,03,16,56,28.10
2009,07,03,16,57,28.10
2009,07,03,16,58,28.10
2009,07,03,16,59,28.10
2009,07,03,17,00,28.10
2009,07,03,17,01,28.10
2009,07,03,17,02,28.10
2009,07,03,17,03,28.00
2009,07,03,17,04,27.70
2009,07,03,17,05,27.50
2009,07,03,17,06,27.40
2009,07,03,17,07,27.40
2009,07,03,17,08,27.30
2009,07,03,17,09,27.30
2009,07,03,17,10,27.40
2009,07,03,17,11,27.30
2009,07,03,17,12,27.30
2009,07,03,17,13,27.30
2009,07,03,17,14,27.20
2009,07,03,17,15,27.20
2009,07,03,17,16,27.10
2009,07,03,17,17,26.80
2009,07,03,17,18,26.60
2009,07,03,17,19,26.50